Location: Pl�tzky
(52.0521°N, 11.8020°E)
Time: 15:28:17
(UTC+00:00)

USA 229 - Pass Details

Date: 23 February 2020
Orbit: 986 x 1226 km, 63.4° (Epoch: 26 March)

Event Time Altitude Azimuth Distance (km) Brightness Sun altitude
Rises 22:10:24 0° 298° (WNW) 3,842 7.2 -45.0°
Reaches altitude 10° 22:13:16 10° 307° (NW) 2,923 6.5 -45.2°
Enters shadow 22:16:38 26° 330° (NNW) 2,036 5.5 -45.4°
